Chehalis, WA
on Wednesday, November 14, 2012

Wednesday
Previous Day Next Day
Daily Summary
 ActualAverage (KOLM)Record (KOLM)
Temperature
Mean Temperature °F 44°F  
Max Temperature 55°F 51°F 65°F (1995)
Min Temperature 39°F 37°F 3°F (1955)
Degree Days
Heating Degree Days 18 21  
Month to date heating degree days 278  
Since 1 July heating degree days 1072  
Cooling Degree Days 0 0  
Month to date cooling degree days 0  
Year to date cooling degree days 106  
Moisture
Dew Point 45°F   
Average Humidity 93    
Maximum Humidity 100    
Minimum Humidity 63    
Precipitation
Precipitation 0.06 in 0.30 in 3.64 in (2001)
Month to date precipitation 3.77  
Year to date precipitation 37.68  
Wind
Wind Speed 2 mph   
Max Wind Speed 7 mph   
Max Gust Speed mph   
Visibility 7 miles   
Events Fog , Rain   

Key: T is trace of precipitation, MM is missing value
Source: NWS Daily Summary
Time(PST)TemperatureDew PointHumidity Pressure Visibility Wind DirectionWind SpeedGust SpeedPrecipitationEvents Conditions
12:15 AM 46.4°F 46.4°F 100% 30.22 in 10.0 miles Calm Calm - N/A   Unknown
12:35 AM 46.4°F 44.6°F 93% 30.22 in 10.0 miles SW 3.5 mph - N/A   Unknown
12:55 AM 46.4°F 46.4°F 100% 30.23 in 7.0 miles Calm Calm - N/A   Unknown
1:15 AM 46.4°F 46.4°F 100% 30.23 in 10.0 miles Calm Calm - N/A   Unknown
1:35 AM 46.4°F 46.4°F 100% 30.23 in 10.0 miles Calm Calm - N/A   Unknown
1:55 AM 46.4°F 44.6°F 93% 30.23 in 10.0 miles Calm Calm - N/A   Unknown
2:15 AM 46.4°F 44.6°F 93% 30.23 in 10.0 miles Calm Calm - N/A   Unknown
2:35 AM 46.4°F 44.6°F 93% 30.23 in 10.0 miles SW 4.6 mph - N/A   Unknown
2:55 AM 46.4°F 46.4°F 100% 30.23 in 10.0 miles SW 3.5 mph - N/A   Unknown
3:15 AM 46.4°F 46.4°F 100% 30.24 in 10.0 miles SW 3.5 mph - N/A   Unknown
3:35 AM 46.4°F 46.4°F 100% 30.23 in 10.0 miles SSW 3.5 mph - N/A   Unknown
3:55 AM 46.4°F 46.4°F 100% 30.24 in 8.0 miles South 3.5 mph - N/A   Unknown
4:15 AM 46.4°F 46.4°F 100% 30.24 in 6.0 miles Calm Calm - N/A   Mist
4:35 AM 46.4°F 46.4°F 100% 30.24 in 8.0 miles Calm Calm - N/A   Unknown
4:55 AM 46.4°F 46.4°F 100% 30.25 in 7.0 miles Calm Calm - N/A   Unknown
5:15 AM 46.4°F 46.4°F 100% 30.25 in 3.0 miles South 3.5 mph - 0.04 in Rain Light Rain
5:35 AM 46.4°F 46.4°F 100% 30.25 in 5.0 miles WSW 4.6 mph - 0.06 in Rain Light Rain
5:55 AM 46.4°F 46.4°F 100% 30.25 in 8.0 miles WSW 3.5 mph - 0.06 in   Unknown
6:15 AM 46.4°F 46.4°F 100% 30.26 in 8.0 miles SW 3.5 mph - N/A   Unknown
6:35 AM 46.4°F 46.4°F 100% 30.26 in 4.0 miles Calm Calm - N/A   Mist
6:55 AM 46.4°F 46.4°F 100% 30.27 in 4.0 miles Calm Calm - N/A   Mist
7:15 AM 46.4°F 44.6°F 93% 30.27 in 4.0 miles Calm Calm - N/A   Mist
7:55 AM 44.6°F 44.6°F 100% 30.29 in 1.2 miles Calm Calm - N/A   Mist
8:15 AM 44.6°F 44.6°F 100% 30.29 in 1.2 miles Calm Calm - N/A   Mist
8:35 AM 46.4°F 44.6°F 93% 30.29 in 0.8 miles SW 3.5 mph - N/A   Mist
8:55 AM 46.4°F 46.4°F 100% 30.29 in 0.2 miles SSW 4.6 mph - N/A Fog Fog
9:15 AM 48.2°F 48.2°F 100% 30.30 in 0.2 miles SSW 3.5 mph - N/A Fog Fog
9:35 AM 48.2°F 46.4°F 93% 30.30 in 0.8 miles Calm Calm - N/A   Mist
10:15 AM 48.2°F 48.2°F 100% 30.32 in 5.0 miles South 3.5 mph - N/A   Mist
10:35 AM 50.0°F 46.4°F 87% 30.32 in 7.0 miles Calm Calm - N/A   Unknown
10:55 AM 50.0°F 48.2°F 94% 30.32 in 10.0 miles Calm Calm - N/A   Unknown
11:15 AM 50.0°F 46.4°F 87% 30.32 in 10.0 miles Calm Calm - N/A   Unknown
11:35 AM 50.0°F 46.4°F 87% 30.32 in 10.0 miles Calm Calm - N/A   Unknown
11:55 AM 51.8°F 46.4°F 82% 30.32 in 10.0 miles Calm Calm - N/A   Unknown
12:15 PM - - N/A% 30.31 in - Calm Calm - N/A   Unknown
12:35 PM 53.6°F 46.4°F 77% 30.31 in 10.0 miles NNE 3.5 mph - N/A   Unknown
12:55 PM - - N/A% - - North - - N/A   Unknown
1:15 PM 55.4°F 46.4°F 72% 30.31 in 10.0 miles North 5.8 mph - N/A   Unknown
1:35 PM 53.6°F 44.6°F 72% 30.31 in 10.0 miles NNE 4.6 mph - N/A   Overcast
2:15 PM 53.6°F 44.6°F 72% 30.30 in 10.0 miles North 3.5 mph - N/A   Clear
2:35 PM 55.4°F 44.6°F 67% 30.30 in 10.0 miles Calm Calm - N/A   Clear
2:55 PM 55.4°F 44.6°F 67% 30.30 in 10.0 miles Calm Calm - N/A   Clear
3:15 PM 55.4°F 42.8°F 63% 30.30 in 10.0 miles NNW 4.6 mph - N/A   Clear
3:35 PM 53.6°F 42.8°F 67% 30.30 in 10.0 miles NNW 4.6 mph - N/A   Clear
3:55 PM 53.6°F 44.6°F 72% 30.30 in 10.0 miles NNW 6.9 mph - N/A   Clear
4:15 PM 50.0°F 46.4°F 87% 30.30 in 10.0 miles NNW 5.8 mph - N/A   Clear
4:35 PM 48.2°F 46.4°F 93% 30.30 in 10.0 miles North 4.6 mph - N/A   Clear
4:55 PM 46.4°F 44.6°F 93% 30.30 in 10.0 miles North 4.6 mph - N/A   Clear
5:15 PM 46.4°F 44.6°F 93% 30.30 in 10.0 miles NNW 4.6 mph - N/A   Clear
5:35 PM 44.6°F 44.6°F 100% 30.30 in 10.0 miles Calm Calm - N/A   Clear
5:55 PM 44.6°F 44.6°F 100% 30.31 in 10.0 miles Calm Calm - N/A   Clear
6:15 PM 44.6°F 42.8°F 93% 30.31 in 10.0 miles North 3.5 mph - N/A   Clear
6:35 PM 44.6°F 42.8°F 93% 30.31 in 10.0 miles Calm Calm - N/A   Clear
6:55 PM 42.8°F 41.0°F 93% 30.31 in 10.0 miles NNE 3.5 mph - N/A   Clear
7:15 PM 42.8°F 42.8°F 100% 30.31 in 10.0 miles Calm Calm - N/A   Clear
7:35 PM 42.8°F 42.8°F 100% 30.30 in 10.0 miles NNE 3.5 mph - N/A   Clear
7:55 PM 41.0°F 41.0°F 100% 30.30 in 0.8 miles NNE 3.5 mph - N/A   Mostly Cloudy
8:15 PM 41.0°F 41.0°F 100% 30.30 in 6.0 miles Calm Calm - N/A   Mostly Cloudy
8:35 PM 44.6°F 42.8°F 93% 30.30 in 8.0 miles NNE 4.6 mph - N/A   Overcast
8:55 PM 44.6°F 44.6°F 100% 30.30 in 6.0 miles NNE 3.5 mph - N/A   Overcast
9:15 PM 44.6°F 44.6°F 100% 30.30 in 4.0 miles NNE 3.5 mph - N/A   Overcast
9:35 PM 44.6°F 44.6°F 100% 30.30 in 3.0 miles NNE 4.6 mph - N/A   Overcast
10:15 PM 41.0°F 41.0°F 100% 30.30 in 0.5 miles ENE 4.6 mph - N/A Fog Fog
10:35 PM 41.0°F 41.0°F 100% 30.29 in 0.5 miles ENE 3.5 mph - N/A Fog Fog
10:55 PM 41.0°F 41.0°F 100% 30.28 in 0.2 miles ENE 3.5 mph - N/A Fog Fog
11:15 PM 39.2°F 39.2°F 100% 30.28 in 0.2 miles Calm Calm - N/A Fog Fog
11:35 PM 39.2°F 39.2°F 100% 30.28 in 0.2 miles Calm Calm - N/A Fog Fog
11:55 PM 39.2°F 39.2°F 100% 30.28 in 0.2 miles SW 3.5 mph - N/A Fog Fog
Moon Phase
Nov. 14 Nov. 20 Nov. 28 Dec. 06 Dec. 13
Sunrise:07:13 AM (PST) Moon Rise:08:13 AM (PST)11/14
Sunset:04:38 PM (PST) Moon Set:05:28 PM (PST)11/14

Copyright © 2014 The Weather Underground, Inc.